Terminal Aerodrome Forecast
Issued by NWS

Home | Current Version | Previous Version | Text Only | Print | Product List | Glossary On
Versions: 1 2 3 4 5 6 7 8 9 10 11 12 13 14 15 16 17 18 19 20 21 22 23 24 25 26 27 28 29
000
FTUS41 KOKX 261100
TAFTEB
TAF
KTEB 261131Z 2612/2712 36011G17KT 6SM -RA SCT015 BKN050
      TEMPO 2614/2615 BKN015 OVC050
     FM261500 01012G19KT 4SM -RASN OVC009
     FM261700 01015G21KT 2SM -SNRA OVC007
     FM262000 36018G25KT 1SM -SN OVC004
     FM270200 33017G25KT 6SM -SN OVC020
     FM270700 31008KT P6SM BKN030=

USA.gov is the U.S. government's official web portal to all federal, state and local government web resources and services.